Date,TemperatureHighF,TemperatureAvgF,TemperatureLowF,DewpointHighF,DewpointAvgF,DewpointLowF,HumidityHigh,HumidityAvg,HumidityLow,PressureMaxIn,PressureMinIn,WindSpeedMaxMPH,WindSpeedAvgMPH,GustSpeedMaxMPH,PrecipitationSumIn
2013-8-1,81.1,71.4,68.4,74.4,69.7,67.2,98,95,77,30.02,29.81,4,1,9,1.04
2013-8-2,85.0,74.2,63.8,73.1,67.4,63.2,98,81,55,29.97,29.85,2,0,6,0.00
2013-8-3,81.1,72.2,65.9,73.2,68.5,64.4,96,89,69,29.97,29.91,3,0,6,0.00
2013-8-4,79.1,71.3,60.9,67.9,63.3,58.9,97,77,53,30.02,29.90,8,2,12,0.00
2013-8-5,80.1,68.3,56.7,69.1,61.0,55.6,97,79,54,30.10,30.01,3,1,6,0.00
2013-8-6,70.5,68.3,64.7,68.1,65.7,62.5,96,92,86,30.07,30.00,8,2,10,0.09
2013-8-7,83.9,75.0,67.9,74.5,70.4,66.1,97,86,68,30.07,30.00,5,2,9,0.02
2013-8-8,85.4,78.5,72.4,76.5,73.8,70.7,95,86,72,30.04,29.97,4,1,7,0.00
2013-8-9,90.6,82.2,75.3,80.3,76.1,73.4,94,82,68,29.98,29.84,4,2,10,0.00
2013-8-10,81.8,75.1,68.2,74.6,71.3,67.0,97,89,73,30.08,29.93,3,0,7,0.18
2013-8-11,81.5,73.7,68.5,74.3,70.6,67.6,98,91,70,30.11,30.00,5,1,7,0.08
2013-8-12,84.9,74.6,69.8,76.5,71.8,68.7,98,92,72,30.02,29.98,5,1,10,0.00
2013-8-15,59.7,58.9,58.1,57.4,56.9,56.4,94,93,92,30.15,30.14,0,0,6,0.01
2013-8-16,75.6,64.7,53.4,64.7,58.2,52.3,97,82,53,30.20,30.12,4,0,6,0.00
2013-8-17,76.4,67.3,57.0,66.4,62.1,55.6,97,85,61,30.24,30.16,6,1,13,0.01
2013-8-18,68.4,65.2,63.0,66.2,63.6,61.5,97,95,88,30.21,30.15,5,1,9,0.91
2013-8-19,72.2,66.8,62.4,68.6,65.3,61.4,99,95,88,30.19,30.07,4,0,6,0.05
2013-8-22,85.4,77.5,71.7,76.3,73.0,70.4,96,87,68,29.97,29.94,1,0,6,0.01
2013-8-23,75.6,70.4,63.6,72.0,68.7,62.4,98,95,85,30.10,29.92,5,1,10,0.17
2013-8-24,80.2,68.8,59.0,68.6,63.4,57.9,98,85,58,30.32,30.10,4,1,9,0.00
2013-8-25,78.8,68.0,59.0,68.0,60.1,50.2,98,79,40,30.41,30.28,5,1,8,0.01
2013-8-26,84.0,70.5,57.6,70.2,63.5,55.7,94,80,56,30.31,30.02,2,0,6,0.00
2013-8-27,87.3,75.7,64.9,79.5,70.1,62.5,95,83,68,30.03,29.87,2,0,6,0.00
2013-8-28,80.7,74.4,71.4,75.0,72.4,70.5,97,94,77,29.93,29.81,2,0,6,0.09
2013-8-29,82.7,75.2,68.4,74.4,71.7,66.9,98,90,70,30.02,29.80,4,1,12,0.00
2013-8-30,84.5,73.8,63.8,73.6,69.1,62.9,98,86,68,30.06,29.90,4,1,7,0.01
2013-8-31,87.5,77.2,69.9,77.4,72.2,68.1,95,85,70,29.94,29.80,4,2,9,0.00